THOR ABLESTAR DEB, 465

Orbit data source: Space-Track

THOR ABLESTAR DEB, 465 is space debris in LEO originally from a launch on Thu, 29 Jun 1961 UTC launched from the Air Force Eastern Test Range (AFETR). Debris objects in space refer to the collection of defunct objects orbiting the Earth. Examples of debris include non-operational satellites, rocket bodies, and fragments generated from explosions, collisions, or faulty payload assembly.

Loading next visibility...
Identifier
465, 1961-015FB
Orbit
LEO
Country
Flag of USUS
Related business
Manufacturer
Unknown
Mission
Spacecraft
Bus & Motor
Unknown
Mass
Unknown
Launch date (UTC)
1961-06-29 (64 years ago)
Launch vehicle
Unknown
Launch site
Air Force Eastern Test Range (AFETR)
Object type
Payload
Rocket body
Debris
Shape & HBR
Unknown shape, 0.1 m
Radar Cross Section
Small (<0.1 m²)

Expand to show TLE details & history
Last TLE update: 8 hours ago

TLE from 8 hours ago
0 THOR ABLESTAR DEB
1 00465U 61015FB  25308.51377607  .00002057  00000-0  67985-3 0  9994
2 00465  66.3160 142.7000 0024826 101.1989 259.1904 14.39868424313741
Epoch: 2025-11-04T12:19Z
TLE epoch observation values (Epoch: 2025-11-04T12:19:50.252Z)
Latitude
0.00003°
Longitude
-86.25908°
Altitude
764.385 km
Speed
7.471 km/s
True Right ascension
09h 30m 48s
True Declination
0° 00' 00"
Sunlit
Object was in daylight at epoch
Visualization orbit readout
Latitude
Unknown
Longitude
Unknown
Altitude
Unknown
Speed
Unknown
Apparent Right ascension
Unknown
Apparent Declination
Unknown
Sunlit
N/A
Visualization observer readout
Local Sidereal Time
16:07:46
Azimuth
Unknown
Elevation
Unknown
Doppler factor
Unknown
Orbital elements
Apogee altitude
775.061 km
Perigee altitude
739.631 km
Semi-major axis
7,135.483 km
Eccentricity
0.00248
Inclination
66.316°
RAAN
142.7°
Arg. of periapsis
101.1989°
True anomaly
258.91113°
Mean anomaly
259.1904°
Eccentric anomaly
259.05075°
Mean motion
3.60088 °/min
Orbital period
99.98 mins
BSTAR
0.00067985

Documentation

Showing up to 5 results
|